This demonstration page uses our WeatherBlox Daily Observations layout. Learn more.

Left ArrowRight Arrow

Hourly Observations for January 26, 2015

Temp ( °F °C ) Dew Point ( °F °C ) Humidity (%) Winds ( mph kmh ) Pressure ( in mb ) Visibility ( mi km ) Precip ( " mm )
12:53 am 00:53 Cloudy 44 6.7 41 5 89 89 SW 7 11 29.73 1007 10 16 0.00 0.00
1:53 am 01:53 Partly Cloudy 44 6.7 40 4.4 85 85 SW 6 9 29.73 1007 10 16 0.00 0.00
2:53 am 02:53 Cloudy 44 6.7 39 3.9 83 83 W 10 17 29.73 1007 10 16 0.00 0.00
3:53 am 03:53 Mostly Cloudy 43 6.1 38 3.3 82 82 W 8 13 29.74 1007 10 16 0.00 0.00
4:10 am 04:10 Cloudy 45 7 37 3 76 76 W 9 15 29.77 1008 10 16 0.00 0.00
4:41 am 04:41 Cloudy 44 6.7 38 3.3 79 79 W 10 17 29.77 1008 10 16 0.00 0.00
4:53 am 04:53 Cloudy 44 6.7 38 3.3 79 79 W 8 13 29.74 1007 10 16 0.00 0.00
5:22 am 05:22 Cloudy 45 7 39 4 81 81 W 7 11 29.77 1008 10 16 0.00 0.00
5:53 am 05:53 Cloudy 44 6.7 39 3.9 83 83 W 8 13 29.75 1007 10 16 0.00 0.00
6:53 am 06:53 Cloudy 45 7.2 38 3.3 77 77 W 9 15 29.77 1008 10 16 0.00 0.00
7:53 am 07:53 Cloudy 44 6.7 38 3.3 79 79 WNW 14 22 29.78 1009 10 16 0.00 0.00
8:53 am 08:53 Cloudy 44 6.7 38 3.3 79 79 W 9 15 29.81 1009 10 16 0.00 0.03
9:53 am 09:53 Cloudy 44 6.7 38 3.3 79 79 WNW 14 22 29.83 1010 10 16 0.00 0.00
10:53 am 10:53 Cloudy with Light Rain 42 5.6 37 2.8 82 82 NW 15 24 29.87 1011 10 16 0.01 0.25
11:53 am 11:53 Cloudy 43 6.1 35 1.7 74 74 WNW 13 20 29.87 1012 10 16 0.00 0.03
12:14 pm 12:14 Cloudy 43 6 36 2 76 76 WNW 14 22 29.88 1012 10 16 0.00 0.00
12:53 pm 12:53 Cloudy 42 5.6 33 0.6 71 71 NW 17 28 29.87 1012 10 16 0.00 0.00
1:53 pm 13:53 Cloudy 41 5 30 -1.1 65 65 NW 20 31 29.87 1012 10 16 0.00 0.00
2:53 pm 14:53 Cloudy 38 3.3 30 -1.1 73 73 WNW 17 28 29.89 1012 10 16 0.00 0.00
3:53 pm 15:53 Cloudy 39 3.9 29 -1.7 67 67 NW 15 24 29.89 1012 10 16 0.00 0.00
4:53 pm 16:53 Cloudy 39 3.9 28 -2.2 65 65 WNW 13 20 29.90 1013 10 16 0.00 0.00
5:00 pm 17:00 Cloudy 39 4 28 -2 65 65 NW 13 20 29.94 1014 10 16 0.00 0.00
5:23 pm 17:23 Mostly Cloudy 39 3.9 28 -2.2 65 65 WNW 14 22 29.94 1014 10 16 0.00 0.00
5:53 pm 17:53 Cloudy 39 3.9 28 -2.2 65 65 NW 12 19 29.91 1013 10 16 0.00 0.00
6:29 pm 18:29 Mostly Cloudy 38 3.3 27 -2.8 65 65 WNW 10 17 29.94 1014 10 16 0.00 0.00
6:53 pm 18:53 Mostly Cloudy 37 2.8 27 -2.8 67 67 WNW 12 19 29.93 1014 10 16 0.00 0.00
7:53 pm 19:53 Mostly Clear 36 2.2 27 -2.8 70 70 W 5 7 29.95 1014 10 16 0.00 0.00
8:53 pm 20:53 Mostly Cloudy 36 2.2 27 -2.8 70 70 NW 3 6 29.96 1015 10 16 0.00 0.00
9:53 pm 21:53 Mostly Cloudy 36 2.2 27 -2.8 70 70 NW 3 6 29.94 1014 10 16 0.00 0.00
10:53 pm 22:53 Mostly Cloudy 35 1.7 26 -3.3 70 70 Calm 29.93 1014 10 16 0.00 0.00
11:53 pm 23:53 Clear 33 0.6 26 -3.3 75 75 W 5 7 29.93 1014 10 16 0.00 0.00

Powered by AerisWeather